Weather History for KPIL - November, 2011

Change the Weather History Date:

Tuesday, November 15, 2011

  Actual Average Record
Temperature  
Mean Temperature 76 °F -  
Max Temperature 87 °F - - ()
Min Temperature 66 °F - - ()
Cooling Degree Days 12    
Growing Degree Days 26 (Base 50)    
Moisture  
Dew Point 65 °F    
Average Humidity 73    
Maximum Humidity 93    
Minimum Humidity 27    
Precipitation  
Precipitation 0.04 in - - ()
Sea Level Pressure  
Sea Level Pressure 29.78 in    
Wind  
Wind Speed 12 mph (South)    
Max Wind Speed 26 mph    
Max Gust Speed 31 mph    
Visibility 9 miles    
Events Rain    
T = Trace of Precipitation, MM = Missing Value Source: NWS Daily Summary

Daily Weather History Graph

Daily Weather History Graph

Search for Another Location

Airport or City:

Trip Planner

Search our weather history database for the weather conditions in past years. The results will help you decide how hot, cold, wet, or windy it might be!

Date:

Astronomy

Nov. 15, 2011 Rise Set
Actual Time 6:47 AM CST 5:39 PM CST
Civil Twilight 6:23 AM CST 6:04 PM CST
Nautical Twilight 5:55 AM CST 6:32 PM CST
Astronomical Twilight 5:27 AM CST 6:59 PM CST
Moon 9:51 PM CST (11/15) 10:44 AM CST (11/15)
Length of Visible Light 11h 40m
Length of Day
10h 52m
Waning Gibbous, 79% of the Moon is Illuminated
Nov 15
Waning Gibbous
Nov 18
Last Quarter
Nov 25
New
Dec 2
First Quarter
Dec 10
Full

Hourly Weather History & Observations

Time (CST) Temp. Heat Index Dew Point Humidity Pressure Visibility Wind Dir Wind Speed Gust Speed Precip Events Conditions
12:53 AM 77.0 °F - 72.0 °F 84% 29.77 in 8.0 mi South 11.5 mph - N/A   Overcast
1:53 AM 77.0 °F - 72.0 °F 84% 29.73 in 8.0 mi SSE 15.0 mph - N/A   Overcast
2:53 AM 77.0 °F - 72.0 °F 84% 29.72 in 8.0 mi SSE 13.8 mph - N/A   Overcast
3:53 AM 78.1 °F - 72.0 °F 81% 29.72 in 8.0 mi SSE 13.8 mph - N/A   Overcast
4:53 AM 77.0 °F - 73.0 °F 88% 29.70 in 8.0 mi SSE 10.4 mph - N/A   Overcast
5:53 AM 77.0 °F - 72.0 °F 84% 29.71 in 8.0 mi SSE 12.7 mph - N/A   Overcast
6:02 AM 77.0 °F - 71.6 °F 83% 29.71 in 8.0 mi SSE 12.7 mph - N/A   Overcast
7:53 AM 77.0 °F - 72.0 °F 84% 29.76 in 5.0 mi South 8.1 mph - N/A   Haze
8:53 AM 78.1 °F - 72.0 °F 81% 29.81 in 6.0 mi WSW 5.8 mph - 0.00 in Rain Light Rain
9:21 AM 77.0 °F - 73.4 °F 89% 29.79 in 5.0 mi South 12.7 mph - 0.01 in   Mostly Cloudy
9:49 AM 71.6 °F - 60.8 °F 69% 29.84 in 10.0 mi NNW 26.5 mph 31.1 mph 0.01 in   Mostly Cloudy
9:53 AM 71.1 °F - 60.1 °F 68% 29.85 in 10.0 mi NW 19.6 mph 31.1 mph 0.01 in   Mostly Cloudy
10:00 AM 69.8 °F - 60.8 °F 73% 29.85 in 3.0 mi NW 18.4 mph - 0.02 in Rain Heavy Rain
10:53 AM 77.0 °F - 61.0 °F 58% 29.83 in 10.0 mi NNW 13.8 mph - 0.03 in   Partly Cloudy
11:53 AM 80.1 °F 80.7 °F 59.0 °F 48% 29.80 in 10.0 mi NNW 10.4 mph - N/A   Partly Cloudy
12:53 PM 84.0 °F 83.0 °F 55.9 °F 38% 29.78 in 10.0 mi NNW 16.1 mph - N/A   Partly Cloudy
1:53 PM 86.0 °F - 52.0 °F 31% 29.75 in 10.0 mi NW 12.7 mph 19.6 mph N/A   Partly Cloudy
2:53 PM 87.1 °F - 48.9 °F 27% 29.73 in 10.0 mi WNW 11.5 mph 16.1 mph N/A   Clear
3:53 PM 82.0 °F 83.4 °F 64.0 °F 54% 29.73 in 10.0 mi Calm Calm - N/A   Clear
4:53 PM 77.0 °F - 66.0 °F 69% 29.75 in 10.0 mi East 9.2 mph - N/A   Clear
5:53 PM 73.9 °F - 66.0 °F 76% 29.76 in 10.0 mi East 4.6 mph - N/A   Clear
6:53 PM 71.1 °F - 66.0 °F 84% 29.79 in 10.0 mi ESE 4.6 mph - N/A   Clear
7:53 PM 69.1 °F - 64.9 °F 87% 29.81 in 10.0 mi SE 6.9 mph - N/A   Clear
8:53 PM 69.1 °F - 64.9 °F 87% 29.83 in 10.0 mi SE 6.9 mph - N/A   Clear
9:53 PM 68.0 °F - 64.0 °F 87% 29.83 in 10.0 mi South 5.8 mph - N/A   Clear
10:53 PM 66.9 °F - 64.9 °F 93% 29.83 in 10.0 mi SSE 6.9 mph - N/A   Clear
11:53 PM 68.0 °F - 66.0 °F 93% 29.83 in 10.0 mi South 4.6 mph - N/A   Clear